When you browse on this site, cookies collect data to enhance your experience and personalize the content and advertising you see.
Visit our Privacy Policy to learn more. By continuing to use the site, you agree to this use of cookies and data.
  • In Romania
  • List of Countries
  • For 7 days
  • Water Temperature
  • Satellite Maps
  • Weather Map
  • Weather Widgets
  • user-avatar
    Login

    Hourly Weather Ketrovaara

    Today, 23 July, Tuesday

    Time Temperature Precipitation Wind Pressure Humidity
    00:00 +16°C° 0 mm 0 mps 755 mmHg 62%
    01:00 +16°C° 0 mm 1 mps 755 mmHg 63%
    02:00 +16°C° 0 mm 1 mps 755 mmHg 64%
    03:00 +16°C° 0 mm 1 mps 755 mmHg 66%
    04:00 +16°C° 0 mm 1 mps 755 mmHg 68%
    05:00 +18°C° 0 mm 1 mps 755 mmHg 71%
    06:00 +19°C° 0 mm 1 mps 755 mmHg 64%
    07:00 +21°C° 0 mm 1 mps 755 mmHg 57%
    08:00 +22°C° 0 mm 1 mps 755 mmHg 51%
    09:00 +23°C° 0 mm 2 mps 755 mmHg 46%
    10:00 +25°C° 0 mm 2 mps 755 mmHg 42%
    11:00 +26°C° 0 mm 2 mps 755 mmHg 38%
    12:00 +26°C° 0 mm 2 mps 755 mmHg 38%
    13:00 +26°C° 0 mm 3 mps 755 mmHg 38%
    14:00 +26°C° 0 mm 3 mps 755 mmHg 38%
    15:00 +26°C° 0 mm 2 mps 755 mmHg 40%
    16:00 +25°C° 0 mm 2 mps 755 mmHg 42%
    17:00 +25°C° 0 mm 2 mps 755 mmHg 43%
    18:00 +23°C° 0 mm 2 mps 755 mmHg 49%
    19:00 +22°C° 0 mm 1 mps 754 mmHg 54%
    20:00 +20°C° 0 mm 1 mps 754 mmHg 59%
    21:00 +19°C° 0 mm 1 mps 754 mmHg 57%
    22:00 +19°C° 0 mm 1 mps 755 mmHg 56%
    23:00 +18°C° 0 mm 1 mps 755 mmHg 54%

    Tomorrow, 24 July, Wednesday

    Time Temperature Precipitation Wind Pressure Humidity
    00:00 +16°C° 0 mm 1 mps 755 mmHg 57%
    01:00 +16°C° 0 mm 1 mps 755 mmHg 60%
    02:00 +16°C° 0 mm 2 mps 755 mmHg 63%
    03:00 +15°C° 0.1 mm 1 mps 755 mmHg 69%
    04:00 +15°C° 0.1 mm 1 mps 755 mmHg 75%
    05:00 +15°C° 0.1 mm 1 mps 755 mmHg 81%
    06:00 +15°C° 0.1 mm 1 mps 755 mmHg 79%
    07:00 +16°C° 0.1 mm 1 mps 755 mmHg 77%
    08:00 +18°C° 0.1 mm 1 mps 755 mmHg 76%
    09:00 +18°C° 0 mm 1 mps 755 mmHg 74%
    10:00 +19°C° 0 mm 1 mps 755 mmHg 73%
    11:00 +19°C° 0 mm 1 mps 755 mmHg 71%
    12:00 +19°C° 0 mm 1 mps 755 mmHg 68%
    13:00 +20°C° 0 mm 1 mps 755 mmHg 65%
    14:00 +20°C° 0 mm 1 mps 755 mmHg 62%
    15:00 +21°C° 0 mm 1 mps 755 mmHg 59%
    16:00 +21°C° 0 mm 1 mps 756 mmHg 56%
    17:00 +22°C° 0 mm 1 mps 756 mmHg 54%
    18:00 +21°C° 0 mm 1 mps 756 mmHg 60%
    19:00 +19°C° 0 mm 1 mps 756 mmHg 66%
    20:00 +18°C° 0 mm 1 mps 756 mmHg 71%
    21:00 +16°C° 0 mm 1 mps 756 mmHg 75%
    22:00 +15°C° 0 mm 1 mps 756 mmHg 78%
    23:00 +15°C° 0 mm 1 mps 757 mmHg 81%

    Day after tomorrow, 25 July, Thursday

    Time Temperature Precipitation Wind Pressure Humidity
    00:00 +14°C° 0 mm 1 mps 757 mmHg 83%
    01:00 +14°C° 0 mm 1 mps 757 mmHg 85%
    02:00 +13°C° 0 mm 1 mps 757 mmHg 88%
    03:00 +13°C° 0 mm 1 mps 757 mmHg 88%
    04:00 +13°C° 0 mm 1 mps 757 mmHg 88%
    05:00 +13°C° 0 mm 1 mps 758 mmHg 89%
    06:00 +15°C° 0 mm 1 mps 758 mmHg 81%
    07:00 +18°C° 0 mm 1 mps 758 mmHg 73%
    08:00 +19°C° 0 mm 1 mps 758 mmHg 66%
    09:00 +20°C° 0 mm 2 mps 758 mmHg 60%
    10:00 +21°C° 0 mm 2 mps 758 mmHg 54%
    11:00 +24°C° 0 mm 2 mps 759 mmHg 48%
    12:00 +24°C° 0 mm 2 mps 759 mmHg 46%
    13:00 +25°C° 0 mm 2 mps 758 mmHg 44%
    14:00 +26°C° 0 mm 2 mps 758 mmHg 42%
    15:00 +26°C° 0 mm 2 mps 758 mmHg 44%
    16:00 +26°C° 0 mm 2 mps 759 mmHg 46%
    17:00 +26°C° 0 mm 2 mps 759 mmHg 49%
    18:00 +24°C° 0 mm 2 mps 759 mmHg 57%
    19:00 +23°C° 0 mm 2 mps 759 mmHg 64%
    20:00 +21°C° 0 mm 1 mps 759 mmHg 72%
    21:00 +21°C° 0 mm 1 mps 759 mmHg 76%
    22:00 +20°C° 0 mm 1 mps 760 mmHg 79%
    23:00 +19°C° 0 mm 1 mps 760 mmHg 83%

    26 July, Friday

    Time Temperature Precipitation Wind Pressure Humidity
    00:00 +18°C° 0 mm 1 mps 760 mmHg 86%
    01:00 +18°C° 0 mm 1 mps 760 mmHg 89%
    02:00 +18°C° 0 mm 1 mps 761 mmHg 92%
    03:00 +18°C° 0 mm 1 mps 761 mmHg 91%
    04:00 +18°C° 0 mm 1 mps 761 mmHg 90%
    05:00 +19°C° 0 mm 1 mps 761 mmHg 89%
    06:00 +21°C° 0 mm 1 mps 761 mmHg 81%
    07:00 +23°C° 0 mm 1 mps 761 mmHg 72%
    08:00 +25°C° 0 mm 1 mps 762 mmHg 64%
    09:00 +26°C° 0 mm 1 mps 762 mmHg 59%
    10:00 +28°C° 0 mm 1 mps 762 mmHg 53%
    11:00 +29°C° 0 mm 1 mps 762 mmHg 48%
    12:00 +29°C° 0 mm 1 mps 761 mmHg 46%
    13:00 +30°C° 0 mm 1 mps 761 mmHg 45%
    14:00 +30°C° 0 mm 1 mps 761 mmHg 43%
    15:00 +30°C° 0 mm 1 mps 760 mmHg 44%
    16:00 +29°C° 0 mm 1 mps 760 mmHg 46%
    17:00 +29°C° 0 mm 1 mps 760 mmHg 47%
    18:00 +27°C° 0 mm 1 mps 760 mmHg 54%
    19:00 +25°C° 0 mm 1 mps 760 mmHg 61%
    20:00 +23°C° 0 mm 1 mps 760 mmHg 69%
    21:00 +22°C° 0 mm 1 mps 760 mmHg 70%
    22:00 +21°C° 0 mm 1 mps 760 mmHg 72%
    23:00 +20°C° 0 mm 1 mps 760 mmHg 74%

    27 July, Saturday

    Time Temperature Precipitation Wind Pressure Humidity
    00:00 +20°C° 0 mm 1 mps 760 mmHg 74%
    01:00 +20°C° 0 mm 1 mps 760 mmHg 74%
    02:00 +19°C° 0 mm 1 mps 760 mmHg 74%
    03:00 +19°C° 0 mm 1 mps 759 mmHg 74%
    04:00 +19°C° 0 mm 1 mps 759 mmHg 73%
    05:00 +20°C° 0 mm 1 mps 759 mmHg 73%
    06:00 +21°C° 0 mm 2 mps 759 mmHg 65%
    07:00 +24°C° 0 mm 2 mps 759 mmHg 57%
    08:00 +26°C° 0 mm 2 mps 759 mmHg 49%
    09:00 +27°C° 0 mm 2 mps 759 mmHg 47%
    10:00 +28°C° 0 mm 2 mps 758 mmHg 45%
    11:00 +30°C° 0 mm 3 mps 758 mmHg 42%
    12:00 +31°C° 0 mm 3 mps 758 mmHg 41%
    13:00 +31°C° 0 mm 3 mps 757 mmHg 39%
    14:00 +33°C° 0 mm 3 mps 757 mmHg 38%
    15:00 +33°C° 0 mm 4 mps 757 mmHg 39%
    16:00 +32°C° 0 mm 4 mps 757 mmHg 41%
    17:00 +32°C° 0 mm 4 mps 756 mmHg 43%
    18:00 +28°C° 0 mm 4 mps 757 mmHg 55%
    19:00 +26°C° 0 mm 4 mps 757 mmHg 67%
    20:00 +22°C° 0 mm 3 mps 757 mmHg 79%
    21:00 +21°C° 0 mm 3 mps 758 mmHg 76%
    22:00 +19°C° 0 mm 4 mps 759 mmHg 73%
    23:00 +17°C° 0 mm 4 mps 759 mmHg 70%

    28 July, Sunday

    Time Temperature Precipitation Wind Pressure Humidity
    00:00 +16°C° 0 mm 3 mps 759 mmHg 70%
    01:00 +13°C° 0 mm 3 mps 760 mmHg 70%
    02:00 +12°C° 0 mm 3 mps 760 mmHg 70%
    03:00 +11°C° 0 mm 3 mps 760 mmHg 70%
    04:00 +11°C° 0 mm 3 mps 761 mmHg 70%
    05:00 +10°C° 0 mm 3 mps 761 mmHg 69%
    06:00 +12°C° 0 mm 3 mps 761 mmHg 64%
    07:00 +13°C° 0 mm 3 mps 761 mmHg 58%
    08:00 +14°C° 0 mm 3 mps 761 mmHg 52%
    09:00 +16°C° 0 mm 3 mps 761 mmHg 47%
    10:00 +17°C° 0 mm 3 mps 761 mmHg 43%
    11:00 +19°C° 0 mm 3 mps 761 mmHg 38%
    12:00 +20°C° 0 mm 2 mps 761 mmHg 37%
    13:00 +20°C° 0 mm 2 mps 760 mmHg 36%
    14:00 +21°C° 0 mm 2 mps 760 mmHg 35%
    15:00 +21°C° 0 mm 2 mps 760 mmHg 37%
    16:00 +22°C° 0 mm 1 mps 759 mmHg 38%
    17:00 +23°C° 0 mm 1 mps 759 mmHg 40%
    18:00 +21°C° 0 mm 1 mps 759 mmHg 45%
    19:00 +20°C° 0 mm 1 mps 759 mmHg 51%
    20:00 +19°C° 0 mm 1 mps 758 mmHg 56%
    21:00 +18°C° 0 mm 1 mps 758 mmHg 58%
    22:00 +18°C° 0 mm 1 mps 758 mmHg 60%
    23:00 +16°C° 0 mm 1 mps 758 mmHg 62%
    Show more